Wind_Speed
9 8 7 7 6 5 6 5 5 6 7 8 8 8 9 7 8 8 9 9 9 9 9 9 10 10 9 9 9 10 11 11 10 10 10 10 10 10 11 11 11 12 12 12
10 9 8 9 9 8 8 8 8 7 6 7 7 9 10 10 9 8 8 9 10 10 10 10 9 9 10 10 10 10 11 11 11 11 11 10 10 11 12 12 12 12 12 12
13 11 12 12 12 11 10 10 9 9 9 8 9 10 11 10 10 10 10 10 11 11 11 11 11 10 10 11 11 11 11 12 11 11 12 11 11 11 12 13 13 13 13 12
15 14 14 13 12 11 12 12 11 10 11 9 9 13 12 10 10 11 10 11 13 13 12 12 12 12 11 12 12 12 12 12 13 13 13 13 13 13 13 13 14 14 13 13
14 15 15 14 13 12 14 14 13 11 12 12 11 13 14 12 11 11 11 12 13 14 14 14 13 12 12 13 13 13 14 14 14 15 15 15 15 15 15 15 15 15 15 15
16 16 16 15 14 14 14 13 12 12 11 12 11 13 15 15 13 12 12 14 15 14 15 15 15 14 14 14 14 14 15 16 16 16 16 16 16 16 16 17 18 17 16 16
17 16 16 15 15 14 14 14 13 12 12 12 11 13 14 15 15 16 14 15 16 16 16 16 16 15 15 14 14 15 16 16 17 17 17 18 18 18 18 19 19 19 19 19
17 16 16 16 16 15 15 15 13 13 12 11 12 13 14 16 17 17 17 17 18 17 17 17 16 15 15 15 15 16 17 18 19 19 19 20 20 20 20 21 21 20 20 21
16 17 16 16 16 16 16 15 13 14 14 14 15 14 15 16 18 17 18 18 19 19 18 18 17 17 17 17 17 18 18 19 20 21 22 23 23 22 22 22 22 22 22 22
19 17 15 16 17 17 17 16 15 15 16 16 15 15 18 19 19 18 19 19 20 20 19 19 19 19 20 20 21 21 21 21 22 22 23 25 25 24 24 23 23 23 23 24
21 22 18 16 18 17 18 18 18 17 18 17 17 18 19 19 19 20 21 20 20 22 24 21 20 22 22 22 23 23 23 23 24 24 25 26 26 25 24 24 24 24 24 25
22 22 23 20 20 19 19 18 17 18 19 19 19 19 20 21 20 20 21 22 23 24 24 23 23 25 24 25 25 25 25 26 27 27 26 26 27 26 26 25 25 26 26 26
23 24 24 22 21 20 22 21 20 20 20 20 19 21 22 23 22 23 26 26 26 24 24 26 27 26 27 28 27 27 27 28 28 28 28 28 28 28 28 27 28 28 27 27
26 27 26 24 21 20 21 22 21 22 21 21 21 23 25 25 23 24 28 27 27 27 27 27 28 28 28 28 27 28 29 29 29 28 29 28 28 29 28 29 29 29 29 29
26 27 27 27 24 21 21 21 21 22 22 22 23 24 26 28 28 28 30 31 30 29 28 29 29 29 29 28 28 29 30 30 30 29 30 29 29 29 29 29 30 30 31 31
25 27 28 29 27 25 24 23 23 24 24 24 25 26 27 29 31 31 32 31 31 30 29 29 30 30 30 29 29 30 30 30 30 30 30 30 30 30 30 30 30 31 31 30
26 28 28 28 27 28 28 25 23 24 24 26 27 28 30 31 33 32 32 31 32 31 30 30 30 31 30 31 30 31 31 31 31 31 31 31 31 31 31 31 31 31 30 30
25 28 28 28 27 28 27 27 27 28 27 27 29 31 32 32 32 34 33 33 33 31 30 31 31 31 31 31 32 32 32 31 33 33 32 32 32 33 32 32 31 31 31 31
25 28 28 26 27 27 26 27 28 29 31 31 32 33 31 32 32 34 34 33 32 31 31 32 32 32 32 32 32 32 33 33 33 33 33 33 33 33 33 32 32 32 32 32
25 27 27 27 27 26 27 27 28 30 33 34 34 34 33 34 34 35 34 33 33 33 33 33 33 33 33 33 34 34 34 33 33 34 34 34 34 34 34 33 32 32 32 32
25 26 27 27 27 28 28 28 28 30 33 34 35 36 36 37 36 36 36 34 34 35 35 35 34 34 34 34 35 35 35 34 34 34 35 36 35 35 34 34 34 33 33 33
25 26 28 29 29 31 29 30 31 32 33 34 34 35 36 37 36 36 35 35 35 35 36 35 35 34 35 35 35 35 35 35 36 36 36 35 35 35 35 35 35 35 34 34
27 28 29 30 32 34 32 31 32 33 33 34 35 34 34 35 36 36 36 36 36 36 36 36 35 36 36 35 35 36 36 36 36 36 35 36 36 35 35 35 35 35 35 35
28 30 31 31 32 32 32 33 33 33 33 34 35 35 35 35 36 36 37 38 38 37 37 36 36 36 35 35 36 36 37 36 36 35 36 36 36 35 36 36 37 36 36 35
27 29 31 31 32 31 32 32 33 34 35 36 36 35 35 36 36 37 37 37 37 37 37 36 36 36 37 37 36 36 35 35 36 36 36 36 36 36 36 36 36 36 35 35
29 29 29 30 31 31 32 32 32 33 34 34 35 35 36 37 37 37 37 37 36 36 36 36 36 36 36 37 37 36 36 36 36 36 36 36 36 35 35 35 35 35 35 35
Wind_Direction
207 217 229 245 246 244 250 262 262 278 300 301 299 301 304 315 327 334 332 334 340 342 344 346 347 350 350 354 355 352 353 352 350 350 349 348 345 348 350 350 346 347 352 350
219 235 241 242 241 249 240 253 264 274 280 287 286 293 302 306 309 313 320 324 331 336 339 339 339 341 343 344 345 343 344 345 342 340 339 336 336 338 341 344 344 344 345 346
223 229 235 238 234 240 250 248 254 260 265 273 287 291 291 290 301 308 317 321 323 328 331 330 329 331 333 335 337 338 337 337 336 332 331 329 326 329 330 332 333 334 341 344
226 233 238 238 241 242 249 245 248 257 270 272 276 282 285 285 291 306 312 314 318 324 323 323 324 325 323 325 329 331 330 329 328 327 325 323 321 321 323 325 327 331 334 336
233 238 241 241 239 240 246 240 240 247 258 263 265 278 287 283 283 290 300 306 310 314 313 315 318 319 319 319 320 323 324 323 323 321 321 318 320 318 318 318 320 324 327 329
235 241 241 240 238 237 243 242 248 248 254 262 265 269 279 283 278 285 293 300 303 306 306 309 312 314 316 316 316 316 316 318 319 320 320 319 317 314 312 313 314 317 320 320
236 243 247 244 241 242 245 251 254 257 256 265 270 263 268 276 280 284 289 292 295 298 300 303 306 309 312 312 314 314 315 317 315 313 314 314 313 312 308 307 308 311 313 314
243 243 245 247 245 243 247 250 252 260 268 269 271 270 267 268 273 281 287 286 288 289 294 299 301 300 305 306 308 309 311 311 311 310 310 309 308 308 306 303 303 305 306 308
235 244 246 252 249 245 245 246 251 260 265 265 264 269 267 265 270 279 287 288 286 287 289 293 296 299 303 305 307 307 307 307 308 307 307 307 306 306 306 303 301 302 303 304
226 236 237 248 250 248 245 240 245 251 261 265 270 277 275 277 275 279 282 286 288 286 284 290 295 295 298 300 302 303 305 303 304 304 304 305 304 302 302 302 301 302 303 302
230 232 234 240 249 248 248 244 242 245 246 258 264 271 275 279 279 280 281 280 282 286 290 288 289 294 296 297 299 302 303 302 301 302 302 302 303 300 298 299 299 299 299 300
235 235 237 236 245 249 244 243 245 251 253 251 262 268 272 277 278 281 282 281 282 284 286 289 290 294 295 297 298 298 299 300 299 298 300 300 300 301 299 298 298 298 299 299
232 232 235 238 243 247 246 245 243 246 255 258 258 264 271 273 275 277 281 283 286 285 284 289 291 291 292 294 295 295 297 298 298 296 295 296 297 299 298 297 296 296 296 297
233 233 234 235 237 243 249 252 249 245 246 254 258 263 269 274 273 275 280 282 285 286 285 286 289 289 290 291 292 292 293 295 295 295 295 295 295 297 296 296 296 296 296 295
237 236 238 235 233 238 249 253 251 250 250 251 257 263 267 271 275 273 275 280 283 284 285 286 287 287 288 289 290 290 290 292 293 293 293 293 293 294 294 294 294 294 294 296
244 240 238 239 235 235 242 248 250 253 250 251 255 259 264 266 269 270 273 277 281 284 285 286 286 286 287 289 289 289 289 290 291 290 291 292 292 293 293 293 294 294 294 295
243 245 244 243 241 240 241 243 246 250 250 249 253 257 261 265 269 271 272 277 280 281 282 284 287 287 286 287 288 289 290 289 290 290 291 292 293 293 293 293 292 292 293 295
246 247 248 248 247 245 243 243 245 248 250 254 255 258 262 263 266 270 274 277 278 279 282 284 285 285 285 287 287 287 287 288 289 289 290 292 292 292 292 292 291 290 292 293
246 248 248 249 250 250 248 246 246 251 253 253 257 260 262 266 267 269 272 275 277 278 281 283 284 284 286 287 287 286 285 286 288 289 288 290 292 293 292 292 291 289 290 292
249 250 249 249 248 250 249 251 249 252 255 256 258 260 263 265 267 270 273 275 276 278 280 283 285 285 286 287 287 287 286 288 290 292 292 291 293 293 292 290 289 289 289 290
248 247 248 248 250 252 252 254 254 253 257 260 262 264 266 266 268 272 273 274 277 279 280 282 283 285 286 289 289 288 288 288 290 292 292 292 292 291 290 289 288 288 288 289
249 246 246 247 247 250 253 254 255 257 258 260 264 266 266 268 271 272 274 275 277 278 279 281 282 283 285 288 289 288 288 289 290 291 291 291 290 291 290 290 289 288 288 288
247 248 250 251 252 256 257 258 259 261 263 264 265 267 269 271 272 273 274 276 277 279 281 282 282 283 284 286 288 288 288 289 289 290 290 290 290 289 288 288 290 289 287 287
251 251 251 253 256 259 260 261 263 265 265 266 267 269 271 271 272 273 276 277 278 279 280 281 282 283 283 285 288 288 288 288 289 288 289 289 289 288 287 287 288 288 287 286
251 253 255 257 259 261 262 264 265 266 266 267 269 270 271 273 274 274 276 277 278 279 279 280 282 282 282 284 285 287 288 288 288 288 288 288 289 287 286 287 287 287 286 286
251 252 256 259 261 262 264 265 265 268 269 269 269 270 271 272 274 275 275 277 278 279 279 281 281 281 282 283 284 285 286 287 288 288 289 289 290 289 288 287 286 285 287 287
Height
5918 5921 5922 5924 5926 5927 5928 5929 5930 5930 5929 5929 5927 5926 5924 5923 5922 5921 5920 5919 5918 5917 5916 5914 5913 5912 5911 5910 5909 5907 5906 5905 5903 5902 5901 5900 5898 5897 5896 5895 5893 5892 5890 5889
5917 5920 5922 5923 5924 5926 5927 5927 5928 5929 5928 5928 5927 5926 5924 5923 5922 5920 5920 5919 5918 5917 5916 5914 5913 5912 5911 5910 5908 5907 5906 5905 5903 5902 5901 5900 5899 5898 5896 5895 5893 5892 5890 5889
5916 5920 5920 5921 5922 5924 5925 5926 5928 5928 5927 5927 5926 5925 5924 5922 5921 5920 5919 5918 5917 5916 5915 5914 5913 5911 5910 5909 5908 5907 5905 5904 5902 5901 5900 5899 5898 5897 5896 5894 5893 5891 5890 5888
5913 5916 5917 5918 5919 5922 5923 5924 5925 5926 5926 5926 5926 5923 5922 5920 5920 5919 5917 5916 5916 5915 5914 5913 5912 5910 5909 5908 5907 5905 5904 5903 5901 5900 5899 5898 5896 5895 5894 5893 5891 5890 5889 5888
5910 5913 5914 5915 5917 5919 5920 5920 5922 5923 5923 5924 5924 5923 5921 5919 5918 5918 5916 5915 5914 5913 5912 5911 5910 5909 5907 5906 5905 5904 5903 5902 5900 5899 5898 5896 5895 5894 5893 5892 5890 5889 5887 5886
5907 5910 5911 5912 5914 5915 5917 5918 5918 5919 5920 5921 5922 5922 5920 5917 5916 5916 5915 5914 5913 5912 5911 5910 5908 5907 5905 5904 5903 5902 5901 5900 5899 5898 5896 5895 5894 5892 5891 5890 5888 5887 5885 5884
5905 5907 5908 5909 5911 5912 5914 5916 5917 5917 5917 5918 5920 5919 5918 5915 5914 5914 5913 5912 5911 5911 5909 5908 5906 5904 5903 5902 5902 5901 5900 5899 5897 5896 5894 5893 5891 5890 5888 5887 5886 5884 5883 5881
5903 5905 5906 5907 5908 5910 5911 5913 5915 5916 5916 5917 5917 5916 5916 5913 5912 5912 5911 5910 5909 5908 5907 5906 5903 5900 5900 5899 5898 5898 5897 5896 5894 5893 5892 5890 5888 5887 5885 5884 5882 5881 5879 5878
5900 5902 5903 5904 5905 5907 5908 5910 5913 5914 5913 5915 5914 5913 5911 5910 5909 5909 5908 5906 5904 5904 5904 5903 5900 5898 5897 5897 5896 5895 5894 5892 5891 5890 5888 5887 5885 5883 5881 5880 5878 5877 5875 5874
5895 5897 5899 5900 5901 5903 5905 5906 5909 5910 5910 5910 5911 5909 5908 5907 5906 5905 5904 5903 5901 5900 5899 5898 5897 5895 5894 5894 5893 5891 5890 5889 5887 5886 5884 5882 5880 5879 5877 5876 5874 5873 5871 5869
5890 5893 5895 5897 5897 5900 5902 5903 5904 5905 5907 5908 5907 5908 5904 5903 5902 5901 5900 5898 5897 5896 5895 5893 5893 5891 5889 5889 5888 5887 5885 5884 5883 5881 5879 5877 5875 5874 5872 5871 5869 5868 5866 5864
5885 5888 5889 5892 5894 5895 5897 5898 5900 5902 5901 5903 5903 5905 5900 5898 5897 5896 5894 5894 5893 5892 5890 5889 5889 5887 5885 5884 5883 5882 5881 5879 5878 5876 5874 5872 5870 5868 5867 5866 5864 5863 5861 5859
5879 5882 5884 5888 5891 5891 5891 5893 5895 5897 5898 5898 5899 5901 5896 5894 5892 5891 5889 5889 5889 5887 5886 5885 5884 5883 5881 5879 5878 5877 5875 5873 5872 5870 5868 5866 5865 5863 5861 5860 5858 5856 5855 5853
5872 5875 5878 5882 5884 5885 5886 5887 5889 5891 5892 5893 5894 5894 5892 5888 5888 5886 5884 5883 5883 5882 5881 5880 5879 5877 5876 5874 5872 5871 5869 5867 5866 5864 5862 5860 5859 5857 5855 5854 5852 5850 5848 5846
5866 5868 5870 5873 5877 5879 5880 5882 5883 5884 5885 5887 5888 5887 5885 5883 5881 5880 5878 5877 5877 5876 5875 5874 5873 5871 5869 5868 5866 5864 5863 5861 5859 5857 5855 5854 5852 5850 5848 5847 5845 5843 5841 5839
5859 5861 5863 5865 5869 5872 5874 5876 5878 5878 5879 5880 5880 5879 5876 5875 5874 5873 5872 5871 5870 5870 5869 5868 5866 5865 5862 5861 5860 5858 5856 5854 5852 5851 5849 5847 5845 5843 5841 5840 5838 5836 5834 5832
5852 5854 5856 5858 5862 5864 5866 5870 5871 5872 5871 5871 5871 5871 5869 5868 5866 5866 5865 5865 5864 5863 5862 5861 5859 5858 5855 5854 5853 5851 5849 5847 5845 5844 5842 5840 5838 5836 5834 5832 5830 5828 5826 5825
5846 5847 5849 5851 5854 5856 5861 5862 5863 5863 5863 5863 5862 5862 5860 5859 5858 5858 5858 5858 5856 5856 5855 5854 5852 5850 5848 5846 5845 5843 5840 5839 5838 5836 5834 5832 5830 5828 5826 5824 5822 5821 5819 5817
5839 5840 5842 5844 5846 5848 5852 5852 5854 5855 5855 5855 5854 5853 5853 5851 5850 5850 5850 5850 5849 5848 5847 5846 5844 5842 5841 5839 5837 5835 5833 5831 5829 5828 5826 5824 5822 5820 5818 5816 5814 5812 5811 5809
5832 5833 5835 5837 5839 5841 5842 5844 5845 5847 5845 5846 5845 5845 5845 5844 5844 5843 5842 5842 5841 5840 5839 5837 5836 5834 5833 5831 5829 5827 5825 5823 5821 5819 5818 5816 5814 5812 5810 5808 5806 5804 5802 5800
5826 5826 5828 5830 5831 5833 5834 5835 5837 5838 5837 5836 5836 5836 5836 5835 5835 5835 5833 5833 5832 5832 5830 5829 5827 5826 5824 5822 5820 5817 5816 5815 5813 5811 5809 5807 5805 5803 5801 5799 5797 5795 5793 5791
5818 5820 5821 5822 5824 5825 5826 5826 5828 5828 5827 5827 5827 5826 5825 5825 5826 5826 5825 5825 5824 5823 5821 5820 5819 5817 5815 5813 5811 5809 5807 5806 5804 5802 5800 5798 5796 5794 5792 5790 5788 5786 5784 5782
5811 5813 5814 5816 5817 5816 5817 5817 5818 5818 5818 5818 5818 5818 5816 5817 5817 5817 5816 5816 5815 5813 5812 5811 5810 5808 5806 5804 5803 5800 5799 5797 5795 5793 5791 5789 5787 5785 5782 5780 5778 5776 5774 5772
5804 5805 5806 5806 5807 5807 5807 5809 5810 5810 5810 5809 5809 5809 5808 5808 5808 5808 5807 5806 5805 5804 5803 5801 5800 5798 5796 5795 5793 5792 5789 5787 5785 5783 5781 5779 5777 5775 5773 5771 5769 5767 5764 5762
5796 5796 5796 5797 5799 5799 5800 5801 5801 5801 5801 5800 5800 5800 5799 5799 5798 5798 5797 5796 5795 5794 5792 5791 5790 5789 5787 5786 5784 5782 5780 5778 5776 5774 5772 5770 5768 5766 5763 5761 5759 5757 5755 5752
5787 5787 5788 5789 5790 5791 5791 5792 5792 5791 5791 5791 5790 5790 5790 5789 5788 5788 5787 5786 5785 5784 5782 5781 5780 5779 5778 5776 5774 5772 5770 5768 5766 5764 5762 5760 5758 5755 5753 5751 5749 5747 5745 5743